Wind_Speed
37 37 37 37 39 42 46 49 50 51 50 49 48 46 45 43 43 41 40 38 37 35 34 34 35 36 35 36 37 39 39 37 38 38 38 39 39 40 40 40 40 40 43 44 44
40 41 42 40 37 39 39 40 45 47 50 51 48 48 48 47 46 46 43 40 37 36 35 35 37 38 37 38 39 40 39 40 41 41 41 41 41 42 42 43 41 45 47 48 48
39 40 42 43 45 45 44 44 46 46 48 47 46 46 43 45 45 46 43 40 37 36 35 36 37 38 37 38 37 38 38 40 41 42 42 43 44 45 46 43 47 48 49 50 51
38 39 43 43 43 44 43 46 46 48 46 45 46 44 45 44 42 44 43 40 38 35 34 35 35 36 36 37 37 38 38 40 41 43 45 47 47 48 49 45 49 51 52 53 54
37 35 39 43 45 46 46 48 48 45 46 47 44 42 43 43 42 40 40 38 35 32 32 34 35 35 35 36 38 38 39 41 43 45 48 49 49 52 45 50 54 53 52 52 52
38 34 37 37 40 46 47 47 46 44 45 46 47 47 44 43 40 39 37 35 33 32 33 33 34 35 36 37 39 39 41 43 44 46 49 50 50 51 48 50 51 51 51 51 52
41 39 36 36 37 36 39 43 45 47 45 45 46 48 46 44 45 44 40 35 35 36 35 36 37 36 36 38 39 42 44 44 45 46 49 50 48 47 48 49 48 47 47 48 48
52 49 47 46 43 41 41 38 37 42 42 45 45 47 47 43 43 43 41 38 36 35 37 39 39 39 39 41 40 40 42 42 43 45 47 49 44 44 45 44 43 42 42 42 44
55 56 55 50 49 47 45 43 40 38 36 39 44 46 47 45 42 42 39 38 38 38 38 39 39 40 42 42 42 41 42 41 43 44 47 46 40 41 41 40 37 37 37 40 42
60 60 58 55 52 50 49 45 44 40 33 31 37 39 40 40 41 42 40 40 40 39 39 39 39 39 39 38 40 41 41 41 42 44 44 43 36 33 37 35 34 35 37 37 40
61 60 59 55 53 52 49 43 41 41 35 28 27 32 36 38 37 37 38 39 40 39 39 37 36 37 38 39 39 39 40 41 41 42 42 36 30 28 35 34 34 35 35 36 42
63 60 56 52 50 53 48 45 40 38 33 30 26 26 28 33 34 34 35 36 37 37 36 34 35 36 36 37 36 37 39 40 39 37 36 32 26 28 31 32 31 33 35 39 40
63 58 54 53 50 50 48 44 42 38 36 31 27 25 26 30 31 30 30 32 33 34 33 32 33 33 33 33 35 36 37 35 36 31 28 27 25 25 31 31 32 33 35 35 32
66 63 61 57 56 53 52 49 44 41 40 34 32 28 24 24 28 29 29 29 30 30 30 30 30 30 31 32 33 34 33 31 28 26 23 25 25 24 28 28 29 30 28 23 16
74 75 74 69 65 63 58 55 49 44 44 38 32 28 27 26 26 26 26 25 26 27 28 30 29 28 29 32 33 31 29 29 26 24 24 25 24 25 27 26 25 24 21 16 13
81 79 76 75 72 69 65 60 54 48 46 39 34 30 29 27 27 26 25 25 26 27 27 28 28 29 30 32 31 29 27 27 26 25 25 24 24 23 23 22 21 19 15 16 20
61 60 68 70 67 66 63 59 56 53 45 41 35 31 29 27 27 26 24 24 25 26 27 28 29 29 30 31 29 27 23 24 24 23 22 22 23 22 21 20 16 15 16 17 20
56 48 48 56 45 46 57 54 56 49 42 39 36 33 29 27 26 26 25 24 24 26 27 27 26 28 29 30 28 27 24 23 27 24 21 19 21 20 19 17 16 13 15 20 21
44 39 32 26 34 34 46 52 49 43 41 37 35 33 28 27 27 25 25 24 24 25 26 25 25 27 28 29 27 27 25 23 22 21 20 18 18 19 16 16 12 13 18 20 25
40 30 18 21 24 26 33 50 45 40 38 37 35 32 26 25 25 23 24 24 25 24 23 23 24 25 27 27 25 24 24 22 20 23 18 16 17 15 12 8 9 14 18 22 19
36 11 14 17 20 23 26 33 42 38 37 36 32 28 25 22 21 21 23 24 23 22 23 23 23 24 25 24 22 22 22 21 20 20 17 15 15 14 8 6 10 15 19 16 13
22 17 18 22 24 21 19 23 25 34 30 32 29 26 23 19 18 20 22 22 21 20 20 21 21 23 21 21 19 18 18 19 19 18 15 15 12 10 5 9 12 15 12 10 10
12 21 24 15 14 14 15 17 18 23 24 27 25 23 19 17 18 18 20 19 18 19 19 19 20 20 15 15 13 15 16 18 20 16 14 14 14 6 7 9 11 13 8 7 7
10 12 19 18 13 12 13 19 16 19 21 22 22 19 17 15 15 16 16 16 18 19 20 21 20 16 13 14 15 15 16 17 17 15 14 12 17 9 8 8 9 7 5 3 7
20 13 16 13 9 13 17 18 14 15 18 20 19 16 14 12 12 14 16 16 17 20 22 21 19 14 14 17 14 12 14 16 15 15 13 14 17 8 7 7 8 5 3 3 8
12 15 21 11 13 13 18 18 14 14 15 17 16 13 11 10 11 13 15 17 20 22 22 21 13 12 14 15 13 10 13 15 15 13 11 13 11 7 7 8 8 5 3 4 10
19 17 18 17 13 15 14 22 14 14 15 16 14 11 9 8 11 13 16 19 20 21 22 16 8 10 12 15 13 11 13 13 12 10 14 11 8 8 9 10 10 6 4 5 12
Wind_Direction
292 289 285 285 285 282 280 281 282 283 280 280 281 283 285 286 284 281 280 278 275 273 270 268 270 269 267 268 269 271 273 274 271 270 270 271 272 272 273 274 275 276 275 273 270
288 285 286 286 284 284 284 284 283 280 283 281 279 278 280 283 283 282 279 277 275 272 271 270 268 267 268 268 268 269 271 270 270 271 272 273 272 273 275 276 277 276 275 277 277
298 296 293 292 290 287 285 284 284 284 285 286 284 280 277 277 278 280 278 276 275 273 272 270 269 270 270 269 269 270 272 273 273 273 274 275 275 276 277 278 276 277 278 276 276
295 297 296 297 296 291 289 287 285 282 282 284 284 281 278 275 274 274 275 274 273 273 272 270 269 270 271 271 272 272 274 274 276 277 277 276 277 278 279 278 278 276 275 276 274
301 301 299 300 298 296 294 291 288 285 286 282 280 280 279 277 272 270 271 273 272 269 268 270 272 273 274 274 274 277 278 278 279 281 279 280 282 280 282 278 277 278 278 276 275
295 298 297 298 299 297 297 293 288 281 279 281 280 276 277 273 271 269 270 271 269 267 269 273 276 276 277 278 277 277 279 281 283 282 281 282 282 282 279 279 278 277 277 276 274
295 294 290 295 292 297 299 296 293 290 279 274 276 272 271 271 269 269 268 268 269 270 273 275 276 278 279 278 279 278 280 282 282 282 281 281 281 280 279 278 278 277 276 274 274
306 304 300 294 295 289 292 294 299 294 284 279 271 271 267 267 268 269 266 265 264 267 270 272 274 276 279 280 282 285 283 285 284 284 283 283 283 282 278 278 277 275 273 272 272
301 302 302 299 298 294 290 289 290 298 294 277 267 264 264 265 263 263 263 263 263 265 268 269 271 274 276 278 281 283 284 287 289 288 286 286 284 281 280 279 276 272 271 271 272
301 301 299 297 294 290 288 286 288 290 288 294 282 272 268 264 260 259 259 258 259 264 266 270 275 279 280 284 283 285 286 287 287 285 285 284 283 281 277 278 274 271 272 276 279
297 296 294 292 290 287 283 282 281 285 282 285 296 283 272 270 264 262 260 258 261 263 267 270 277 281 285 286 288 289 289 288 286 286 284 283 283 271 274 274 272 274 280 285 285
294 291 289 287 285 283 281 278 277 281 276 278 287 292 282 275 271 270 267 266 264 265 268 272 277 281 283 285 288 288 288 287 286 283 281 280 276 271 275 277 279 284 286 284 283
290 287 285 282 280 278 277 276 276 275 278 279 286 291 289 279 277 274 272 269 267 268 270 273 276 280 284 286 287 286 285 283 282 277 277 278 271 275 279 282 284 283 284 284 279
287 284 282 279 278 276 274 273 272 272 274 277 282 287 289 281 277 279 274 271 269 269 269 272 277 281 286 286 286 287 281 277 272 272 271 278 279 276 280 281 283 283 282 272 267
285 281 280 277 275 274 271 270 270 269 271 274 279 281 285 281 281 276 274 269 266 266 270 273 278 281 285 286 286 282 274 267 267 273 275 281 285 284 286 289 285 278 267 265 275
289 283 277 272 269 268 266 264 265 263 263 266 272 274 278 279 280 275 274 270 268 270 271 274 275 279 284 287 283 277 272 266 265 275 277 282 284 288 288 287 280 263 256 273 286
290 281 274 267 261 258 257 256 255 255 261 262 265 268 269 275 276 277 274 272 272 272 272 272 274 278 286 285 278 271 273 270 266 273 279 284 285 288 285 278 265 254 265 279 287
295 279 269 262 270 261 251 248 248 250 252 255 259 261 264 269 270 273 275 275 274 273 272 273 278 282 285 281 274 267 270 275 271 274 278 280 289 289 279 266 241 270 272 291 295
298 285 265 260 264 265 248 240 244 239 242 246 250 253 257 264 266 270 275 277 276 276 278 281 281 282 282 277 269 260 267 272 276 273 281 288 290 284 262 246 250 266 285 292 295
305 257 269 253 254 255 250 241 238 233 235 240 244 247 251 255 259 268 275 278 280 280 281 281 281 282 279 274 267 257 262 267 268 270 278 289 288 271 243 243 267 281 287 296 298
317 244 252 238 249 256 256 252 243 236 231 235 235 238 242 243 254 267 277 279 282 284 284 284 285 281 275 267 261 254 262 267 266 269 283 288 279 243 214 274 279 285 301 303 302
306 228 237 263 259 262 273 254 242 243 239 230 228 226 227 236 253 266 273 277 279 284 288 289 290 283 275 259 253 256 259 263 263 265 274 282 245 241 206 274 285 303 304 304 317
291 245 243 255 273 261 264 232 229 234 229 225 219 214 219 237 250 262 272 272 281 288 292 299 298 284 269 247 248 252 252 258 260 265 273 267 217 193 243 266 295 313 311 314 300
273 247 236 253 272 250 238 218 217 221 220 212 207 208 219 230 247 260 262 275 284 292 296 295 302 280 252 232 242 247 244 251 259 260 263 246 206 208 248 265 303 315 304 278 305
255 215 239 248 278 242 217 210 207 213 211 203 199 201 208 223 242 260 272 279 289 296 297 296 293 264 244 232 248 242 242 248 255 259 262 225 208 212 242 264 309 304 280 252 312
231 210 219 236 276 222 209 203 207 202 199 189 183 190 209 228 246 255 270 286 300 304 303 300 280 251 235 242 258 261 242 241 252 257 227 185 200 217 243 259 283 306 242 278 332
207 213 209 219 249 209 220 198 205 192 184 175 174 181 202 229 245 265 283 295 301 302 298 292 248 239 228 257 274 255 237 242 240 227 164 186 209 234 253 256 261 278 239 281 327
Height
5767 5766 5764 5762 5759 5758 5756 5755 5754 5753 5752 5751 5748 5747 5746 5745 5744 5744 5745 5745 5744 5744 5744 5743 5743 5743 5742 5743 5743 5743 5742 5743 5741 5741 5742 5741 5741 5741 5741 5741 5741 5742 5740 5741 5742
5758 5756 5754 5752 5748 5747 5746 5744 5743 5742 5742 5741 5738 5737 5737 5737 5736 5734 5734 5735 5735 5734 5735 5734 5734 5734 5734 5733 5733 5733 5734 5732 5731 5731 5731 5731 5731 5730 5732 5731 5732 5729 5729 5729 5730
5751 5750 5748 5744 5742 5739 5736 5734 5733 5731 5731 5730 5729 5727 5725 5725 5726 5726 5725 5724 5724 5725 5724 5724 5724 5725 5724 5724 5724 5724 5724 5722 5722 5721 5721 5721 5720 5721 5720 5722 5719 5718 5718 5717 5718
5743 5740 5740 5736 5734 5732 5729 5727 5725 5723 5721 5721 5721 5719 5716 5715 5716 5715 5715 5715 5714 5715 5715 5715 5716 5715 5715 5714 5714 5714 5713 5712 5712 5711 5711 5709 5709 5709 5708 5709 5707 5706 5705 5705 5705
5733 5730 5728 5726 5723 5721 5719 5717 5716 5713 5712 5711 5711 5710 5707 5706 5705 5704 5704 5705 5705 5705 5706 5707 5706 5705 5705 5704 5703 5704 5703 5702 5701 5701 5700 5699 5698 5696 5698 5694 5693 5694 5694 5693 5692
5725 5720 5718 5715 5713 5711 5708 5705 5704 5702 5701 5700 5700 5699 5698 5695 5695 5695 5695 5695 5696 5696 5696 5696 5696 5696 5696 5695 5694 5694 5693 5691 5690 5689 5689 5688 5686 5684 5685 5684 5682 5681 5681 5681 5680
5714 5712 5708 5706 5703 5701 5697 5695 5691 5690 5689 5688 5687 5687 5687 5685 5685 5685 5686 5685 5685 5686 5687 5686 5686 5686 5686 5684 5684 5683 5683 5681 5680 5678 5677 5676 5675 5673 5671 5670 5669 5669 5669 5668 5668
5703 5700 5697 5693 5692 5690 5689 5685 5681 5679 5676 5675 5675 5674 5674 5674 5674 5674 5675 5675 5675 5676 5677 5676 5676 5675 5675 5674 5674 5673 5672 5671 5668 5667 5665 5664 5665 5661 5658 5658 5658 5657 5657 5657 5656
5693 5689 5686 5682 5679 5678 5676 5676 5673 5669 5666 5664 5663 5661 5662 5663 5662 5663 5664 5665 5666 5665 5665 5666 5666 5666 5665 5665 5665 5663 5661 5660 5658 5656 5654 5654 5654 5648 5647 5647 5648 5648 5647 5646 5645
5678 5674 5672 5669 5667 5665 5663 5662 5662 5660 5658 5654 5653 5652 5651 5650 5650 5651 5652 5654 5654 5655 5656 5656 5656 5655 5655 5654 5654 5652 5651 5649 5646 5645 5644 5643 5644 5640 5636 5637 5638 5637 5637 5636 5634
5664 5661 5658 5655 5653 5650 5651 5650 5651 5651 5649 5646 5643 5641 5640 5641 5640 5640 5642 5643 5644 5645 5646 5646 5647 5645 5645 5643 5643 5642 5641 5639 5636 5634 5634 5632 5634 5632 5628 5629 5629 5628 5627 5625 5623
5649 5646 5644 5640 5639 5637 5636 5636 5637 5638 5640 5636 5635 5633 5631 5631 5631 5632 5633 5635 5635 5636 5637 5638 5637 5636 5635 5634 5633 5632 5631 5628 5626 5624 5623 5623 5626 5624 5621 5620 5620 5618 5617 5614 5612
5632 5631 5629 5627 5626 5625 5623 5623 5624 5625 5626 5629 5626 5624 5623 5623 5623 5623 5624 5625 5626 5627 5627 5628 5628 5627 5626 5624 5623 5622 5620 5618 5617 5616 5616 5615 5616 5616 5612 5612 5610 5609 5607 5605 5602
5614 5614 5613 5614 5613 5612 5611 5611 5611 5613 5612 5618 5617 5615 5615 5615 5615 5614 5614 5617 5617 5618 5618 5619 5619 5617 5617 5615 5614 5613 5611 5609 5609 5608 5610 5608 5609 5608 5605 5604 5603 5600 5598 5596 5594
5596 5593 5593 5594 5595 5596 5597 5596 5599 5601 5599 5606 5607 5607 5607 5607 5606 5606 5606 5607 5609 5610 5611 5610 5610 5609 5608 5607 5605 5605 5603 5602 5602 5601 5602 5601 5601 5600 5597 5597 5594 5592 5591 5590 5591
5569 5563 5564 5568 5572 5575 5578 5580 5584 5588 5588 5594 5596 5598 5598 5598 5598 5598 5598 5600 5600 5601 5601 5601 5602 5601 5600 5599 5597 5596 5596 5594 5595 5595 5595 5595 5594 5593 5591 5589 5587 5586 5586 5587 5587
5539 5536 5533 5537 5546 5550 5557 5561 5566 5571 5581 5584 5586 5588 5590 5590 5590 5592 5592 5591 5592 5593 5594 5594 5594 5593 5592 5591 5590 5589 5588 5587 5588 5589 5589 5589 5587 5586 5583 5582 5582 5582 5582 5582 5581
5517 5515 5515 5520 5526 5530 5537 5544 5545 5561 5568 5572 5577 5579 5580 5582 5584 5585 5585 5585 5585 5585 5586 5586 5587 5585 5584 5583 5583 5582 5583 5582 5580 5582 5583 5583 5580 5579 5577 5577 5577 5578 5578 5577 5574
5501 5498 5501 5509 5514 5517 5522 5527 5534 5548 5554 5560 5566 5569 5572 5574 5577 5577 5578 5578 5578 5579 5580 5579 5578 5577 5576 5575 5576 5576 5577 5577 5576 5576 5577 5577 5574 5573 5572 5573 5574 5575 5574 5571 5569
5491 5490 5500 5502 5506 5509 5511 5517 5525 5536 5542 5549 5555 5559 5563 5567 5570 5571 5571 5572 5571 5572 5571 5571 5571 5569 5568 5568 5568 5568 5571 5573 5572 5571 5572 5571 5568 5568 5568 5570 5571 5571 5568 5566 5563
5488 5490 5494 5498 5501 5503 5505 5509 5519 5527 5532 5539 5545 5550 5556 5560 5563 5564 5565 5565 5565 5565 5564 5564 5564 5564 5561 5561 5561 5563 5565 5566 5566 5567 5566 5565 5565 5564 5566 5567 5567 5565 5563 5561 5558
5486 5489 5492 5496 5498 5499 5502 5505 5511 5519 5525 5532 5538 5543 5549 5553 5556 5558 5559 5559 5559 5559 5558 5557 5557 5555 5554 5554 5555 5557 5559 5560 5561 5562 5561 5561 5561 5561 5563 5564 5562 5561 5559 5557 5555
5485 5486 5489 5492 5494 5496 5498 5502 5507 5514 5520 5527 5532 5538 5543 5547 5551 5552 5553 5554 5553 5553 5552 5551 5550 5548 5548 5550 5551 5552 5554 5555 5555 5556 5557 5557 5559 5560 5560 5560 5559 5557 5556 5554 5553
5480 5484 5487 5490 5492 5493 5495 5499 5503 5510 5516 5522 5528 5533 5538 5542 5545 5547 5548 5549 5548 5547 5546 5545 5544 5542 5544 5545 5546 5547 5548 5549 5550 5552 5552 5553 5554 5557 5557 5557 5556 5555 5554 5552 5550
5475 5480 5484 5488 5488 5490 5493 5498 5503 5508 5513 5518 5525 5529 5534 5538 5541 5542 5544 5544 5544 5542 5540 5540 5538 5537 5538 5539 5541 5542 5543 5544 5546 5547 5548 5550 5552 5554 5555 5554 5554 5553 5552 5551 5549
5471 5476 5480 5484 5485 5487 5491 5497 5501 5506 5510 5516 5522 5526 5531 5534 5537 5538 5539 5539 5538 5537 5534 5533 5532 5533 5535 5535 5536 5538 5538 5541 5542 5543 5545 5548 5550 5552 5552 5552 5552 5551 5551 5550 5548
5467 5472 5476 5480 5483 5486 5491 5494 5499 5504 5509 5514 5520 5524 5528 5532 5533 5534 5535 5534 5534 5532 5530 5528 5528 5530 5532 5532 5532 5534 5535 5537 5539 5540 5543 5546 5548 5549 5549 5549 5550 5549 5549 5548 5547